FW2728 Weather Reports


Display with metric or nautical units.
time (UTC)temp
F
wind
direction
speed
MPH
gust
MPH
rain 1hr
in
rain 24hr
in
rain mn
in
humidity
%
barometer
mb
20260905214016 98 55 2.0 4.0 0.00 0.00 0.00 38 1010.9
20260905213016 100 57 3.0 6.0 0.00 0.00 0.00 36 1011.0
20260905212017 98 62 2.0 4.0 0.00 0.00 0.00 39 1011.1
20260905211017 98 318 1.0 3.0 0.00 0.00 0.00 39 1011.3
20260905210036 99 167 1.0 4.0 0.00 0.00 0.00 38 1011.5
20260905205017 99 88 1.0 3.0 0.00 0.00 0.00 37 1011.5
20260905204017 100 103 2.0 5.0 0.00 0.00 0.00 37 1011.6
20260905203017 101 52 3.0 5.0 0.00 0.00 0.00 37 1011.7
20260905202017 101 74 3.0 6.0 0.00 0.00 0.00 37 1011.7
20260905201017 101 45 2.0 5.0 0.00 0.00 0.00 36 1011.8
20260905200018 100 76 2.0 5.0 0.00 0.00 0.00 36 1012.1
20260905195018 99 147 2.0 5.0 0.00 0.00 0.00 37 1012.3
20260905194018 98 57 1.0 5.0 0.00 0.00 0.00 39 1012.5
20260905193018 99 90 1.0 4.0 0.00 0.00 0.00 38 1012.8
20260905192015 98 283 3.0 6.0 0.00 0.00 0.00 40 1012.7
20260905191015 99 245 3.0 6.0 0.00 0.00 0.00 39 1013.0
20260905190016 99 124 2.0 8.0 0.00 0.00 0.00 37 1013.2
20260905185016 98 98 2.0 5.0 0.00 0.00 0.00 38 1013.4
20260905184016 98 120 2.0 6.0 0.00 0.00 0.00 39 1013.4
20260905183016 98 179 3.0 9.0 0.00 0.00 0.00 40 1013.5
20260905182017 98 55 2.0 5.0 0.00 0.00 0.00 40 1013.6
20260905181017 98 80 3.0 8.0 0.00 0.00 0.00 40 1014.0
20260905180037 98 100 2.0 6.0 0.00 0.00 0.00 40 1014.1
20260905175037 97 68 2.0 6.0 0.00 0.00 0.00 41 1014.2
20260905174017 97 228 3.0 8.0 0.00 0.00 0.00 43 1014.3
20260905173017 97 97 1.0 4.0 0.00 0.00 0.00 42 1014.4
20260905172017 95 110 2.0 7.0 0.00 0.00 0.00 44 1014.5
20260905171057 94 268 2.0 4.0 0.00 0.00 0.00 46 1014.6
20260905170017 95 190 2.0 5.0 0.00 0.00 0.00 45 1014.7
20260905165018 95 173 1.0 3.0 0.00 0.00 0.00 45 1014.7
20260905164018 94 109 2.0 5.0 0.00 0.00 0.00 46 1014.8
20260905163018 94 64 1.0 3.0 0.00 0.00 0.00 48 1014.9
20260905162016 92 291 2.0 5.0 0.00 0.00 0.00 50 1014.8
20260905161018 92 286 3.0 7.0 0.00 0.00 0.00 53 1014.8
20260905160016 92 113 1.0 3.0 0.00 0.00 0.00 52 1014.8
20260905155016 90 219 2.0 4.0 0.00 0.00 0.00 55 1014.8
20260905154016 90 237 1.0 4.0 0.00 0.00 0.00 55 1014.8
20260905153036 89 221 2.0 3.0 0.00 0.00 0.00 57 1014.9
20260905152016 89 228 2.0 4.0 0.00 0.00 0.00 57 1014.8
20260905151036 88 236 2.0 5.0 0.00 0.00 0.00 58 1014.7
20260905150017 88 238 1.0 4.0 0.00 0.00 0.00 59 1014.6
20260905145016 87 219 1.0 3.0 0.00 0.00 0.00 61 1014.7
20260905144017 86 227 1.0 5.0 0.00 0.00 0.00 64 1014.8
20260905143017 85 223 1.0 4.0 0.00 0.00 0.00 66 1014.9
20260905142017 85 250 2.0 3.0 0.00 0.00 0.00 67 1014.8
20260905141017 84 221 1.0 3.0 0.00 0.00 0.00 69 1014.8
20260905140018 83 236 1.0 4.0 0.00 0.00 0.00 71 1014.7
20260905135018 82 234 1.0 4.0 0.00 0.00 0.00 73 1014.7
20260905134018 82 234 2.0 5.0 0.00 0.00 0.00 73 1014.6
20260905133018 82 184 0.0 2.0 0.00 0.00 0.00 74 1014.5
20260905132015 81 110 0.0 2.0 0.00 0.00 0.00 75 1014.5
20260905131018 79 103 0.0 2.0 0.00 0.00 0.00 78 1014.3
20260905130015 78 116 0.0 1.0 0.00 0.00 0.00 80 1014.2
20260905125016 78 226 1.0 3.0 0.00 0.00 0.00 81 1014.0
20260905124015 77 222 1.0 3.0 0.00 0.00 0.00 82 1013.9
20260905123016 77 189 0.0 2.0 0.00 0.00 0.00 83 1013.9
20260905122036 77 135 0.0 2.0 0.00 0.00 0.00 83 1014.1
20260905121016 77 221 0.0 2.0 0.00 0.00 0.00 83 1014.1
20260905120016 77 75 0.0 2.0 0.00 0.00 0.00 83 1014.0
20260905115017 77 108 0.0 1.0 0.00 0.00 0.00 83 1014.0
20260905114016 77 257 0.0 2.0 0.00 0.00 0.00 83 1014.0
20260905113037 77 67 0.0 2.0 0.00 0.00 0.00 83 1014.0
20260905112017 77 63 0.0 1.0 0.00 0.00 0.00 82 1013.9
20260905111017 77 60 0.0 1.0 0.00 0.00 0.00 82 1013.9
20260905110017 77 61 0.0 2.0 0.00 0.00 0.00 82 1013.9
20260905105037 78 96 0.0 1.0 0.00 0.00 0.00 81 1013.9
20260905104018 78 123 0.0 1.0 0.00 0.00 0.00 80 1013.9
20260905103018 78 355 0.0 1.0 0.00 0.00 0.00 79 1014.0
20260905102018 79 0.0 0.0 0.00 0.00 0.00 78 1013.9
20260905101018 79 106 0.0 2.0 0.00 0.00 0.00 78 1013.7
20260905100015 79 134 0.0 2.0 0.00 0.00 0.00 77 1013.8
20260905095015 80 172 0.0 2.0 0.00 0.00 0.00 76 1013.7
20260905094036 80 180 0.0 1.0 0.00 0.00 0.00 76 1013.7
20260905093016 80 182 0.0 1.0 0.00 0.00 0.00 75 1013.6
20260905092017 80 200 1.0 3.0 0.00 0.00 0.00 75 1013.6
20260905091016 81 234 1.0 3.0 0.00 0.00 0.00 74 1013.5
20260905090017 81 236 1.0 3.0 0.00 0.00 0.00 74 1013.5
20260905085017 81 232 1.0 4.0 0.00 0.00 0.00 73 1013.5
20260905084017 81 208 0.0 3.0 0.00 0.00 0.00 73 1013.5
20260905083017 81 220 1.0 3.0 0.00 0.00 0.00 73 1013.4
20260905082017 82 223 0.0 2.0 0.00 0.00 0.00 72 1013.4
20260905081017 82 213 1.0 3.0 0.00 0.00 0.00 72 1013.4
20260905080017 82 206 1.0 2.0 0.00 0.00 0.00 71 1013.4
20260905075017 82 220 1.0 4.0 0.00 0.00 0.00 71 1013.4
20260905074018 82 227 2.0 5.0 0.00 0.00 0.00 70 1013.3
20260905073015 83 243 2.0 5.0 0.00 0.00 0.00 70 1013.5
20260905072015 83 213 1.0 3.0 0.00 0.00 0.00 69 1013.5
20260905071036 83 211 1.0 4.0 0.00 0.00 0.00 69 1013.5
20260905070016 83 242 1.0 4.0 0.00 0.00 0.00 68 1013.7
20260905065016 84 222 1.0 5.0 0.00 0.00 0.00 67 1013.7
20260905064016 84 210 2.0 5.0 0.00 0.00 0.00 67 1013.8
20260905063016 84 212 2.0 5.0 0.00 0.00 0.00 66 1013.8
20260905062036 84 213 2.0 4.0 0.00 0.00 0.00 65 1013.8
20260905061016 85 209 2.0 4.0 0.00 0.00 0.00 65 1013.8
20260905060017 85 208 1.0 4.0 0.00 0.00 0.00 64 1013.8
20260905055017 85 215 2.0 6.0 0.00 0.00 0.00 63 1013.7
20260905054037 86 210 1.0 4.0 0.00 0.00 0.00 63 1013.5
20260905053037 86 207 1.0 5.0 0.00 0.00 0.00 62 1013.5
20260905052017 86 208 1.0 4.0 0.00 0.00 0.00 61 1013.5
20260905051017 86 200 2.0 6.0 0.00 0.00 0.00 61 1013.5
20260905050018 87 210 2.0 7.0 0.00 0.00 0.00 60 1013.4
20260905045016 87 213 3.0 6.0 0.00 0.00 0.00 60 1013.4
20260905044016 87 195 2.0 5.0 0.00 0.00 0.00 59 1013.4
20260905043056 88 188 2.0 6.0 0.00 0.00 0.00 58 1013.4
20260905042057 88 199 1.0 4.0 0.00 0.00 0.00 57 1013.3
20260905041016 88 205 3.0 7.0 0.00 0.00 0.00 56 1013.3
20260905040016 88 203 2.0 6.0 0.00 0.00 0.00 56 1013.4
20260905035017 89 212 2.0 5.0 0.00 0.00 0.00 55 1013.5
20260905034016 89 188 2.0 6.0 0.00 0.00 0.00 54 1013.5
20260905033037 90 191 2.0 7.0 0.00 0.00 0.00 53 1013.5
20260905032017 90 165 2.0 6.0 0.00 0.00 0.00 53 1013.3
20260905031017 90 191 2.0 6.0 0.00 0.00 0.00 52 1013.3
20260905030017 90 174 2.0 5.0 0.00 0.00 0.00 51 1013.2
20260905025018 91 155 1.0 5.0 0.00 0.00 0.00 50 1013.1
20260905024018 91 140 2.0 6.0 0.00 0.00 0.00 49 1012.9
20260905023018 91 106 1.0 3.0 0.00 0.00 0.00 47 1012.7
20260905022018 92 149 1.0 3.0 0.00 0.00 0.00 46 1012.5
20260905021016 92 143 1.0 4.0 0.00 0.00 0.00 45 1012.4
20260905020018 92 138 1.0 3.0 0.00 0.00 0.00 45 1012.1
20260905015015 93 148 1.0 4.0 0.00 0.00 0.00 45 1012.0
20260905014036 93 112 1.0 6.0 0.00 0.00 0.00 45 1011.9
20260905013016 93 145 2.0 5.0 0.00 0.00 0.00 46 1011.7
20260905012016 93 185 1.0 5.0 0.00 0.00 0.00 46 1011.7
20260905011017 94 132 2.0 8.0 0.00 0.00 0.00 45 1011.6
20260905010016 94 164 1.0 5.0 0.00 0.00 0.00 45 1011.5
20260905005017 94 131 2.0 5.0 0.00 0.00 0.00 44 1011.3
20260905004017 95 110 2.0 6.0 0.00 0.00 0.00 43 1011.2
20260905003017 96 106 3.0 7.0 0.00 0.00 0.00 43 1011.0
20260905002057 96 142 2.0 6.0 0.00 0.00 0.00 42 1011.0
20260905001037 96 171 2.0 6.0 0.00 0.00 0.00 42 1011.0
20260905000018 97 122 3.0 7.0 0.00 0.00 0.00 41 1010.9
20260904235018 97 134 3.0 7.0 0.00 0.00 0.00 41 1010.9
20260904234018 98 130 2.0 5.0 0.00 0.00 0.00 40 1010.9
20260904233018 99 152 2.0 6.0 0.00 0.00 0.00 39 1010.8
20260904232038 99 111 1.0 6.0 0.00 0.00 0.00 38 1010.8
20260904231015 100 105 3.0 9.0 0.00 0.00 0.00 37 1010.8
20260904230015 100 157 3.0 6.0 0.00 0.00 0.00 37 1010.8
20260904225016 101 115 2.0 4.0 0.00 0.00 0.00 36 1010.9
20260904224015 101 149 2.0 8.0 0.00 0.00 0.00 35 1010.9
20260904223016 101 89 2.0 7.0 0.00 0.00 0.00 35 1010.9
20260904222037 100 170 2.0 6.0 0.00 0.00 0.00 36 1011.0
20260904221016 100 199 2.0 8.0 0.00 0.00 0.00 36 1011.0
20260904220016 100 144 3.0 9.0 0.00 0.00 0.00 36 1011.1
20260904215037 100 93 3.0 8.0 0.00 0.00 0.00 37 1011.1